Regional Weather Roundup
Issued by NWS

Home | Current Version | Previous Version | Text Only | Print | Product List | Glossary On
Versions: 1 2 3 4 5 6 7 8 9 10 11 12 13 14 15 16 17 18 19 20 21 22 23 24 25 26 27 28 29 30 31 32 33 34 35 36 37 38 39 40 41 42 43 44 45 46 47 48 49 50
000
ASUS44 KOUN 292110
RWROK

WEATHER ROUNDUP FOR OKLAHOMA
NATIONAL WEATHER SERVICE NORMAN OK
400 PM CDT MON MAY 29 2017

NOTE: "FAIR" INDICATES FEW OR NO CLOUDS BELOW 12,000 FEET WITH NO
      SIGNIFICANT WEATHER AND/OR OBSTRUCTIONS TO VISIBILITY.

OKZ001>007-009>012-014-015-017-292200-
NORTHWEST OKLAHOMA AND THE PANHANDLE

CITY           SKY/WX    TMP DP  RH WIND       PRES   REMARKS
GAGE           PTSUNNY   82  48  30 NE6       30.09F
GUYMON         PTSUNNY   80  43  26 E5        30.11F
ENID/WOODRING  PTSUNNY   91  48  22 W15       30.01F
$$

OKZ016-021>023-033>039-044-045-292200-
SOUTHWEST OKLAHOMA

CITY           SKY/WX    TMP DP  RH WIND       PRES   REMARKS
LAWTON/REGL    SUNNY     88  46  23 VRB6      30.04F
LAWTON/FT SILL SUNNY     86  51  29 E3        30.03F
FREDERICK      SUNNY     88  46  23 SE12      30.02F
CLINTON        MOSUNNY   87  37  17 VRB5      30.07F
HOBART         SUNNY     86  39  19 N7        30.06F
ALTUS AFB      SUNNY     89  36  15 E3        30.04F
$$

OKZ018>020-024>031-292200-
CENTRAL OKLAHOMA

CITY           SKY/WX    TMP DP  RH WIND       PRES   REMARKS
OKLAHOMA CITY  MOSUNNY   87  43  21 SW9       30.03F
OKC/WILEY POST MOSUNNY   89  42  19 SW6       30.02F
OKC/TINKER AFB MOSUNNY   85  46  26 S6        30.02F HAZE
STILLWATER     MOSUNNY   88  45  22 SW7       30.00F
GUTHRIE        MOSUNNY   89  46  22 VRB3      30.01F
$$

OKZ008-013-054>072-292200-
NORTHEAST OKLAHOMA

CITY           SKY/WX    TMP DP  RH WIND       PRES   REMARKS
TULSA          MOSUNNY   87  54  32 SW7       29.98F
TULSA/JONES    SUNNY     88  51  28 VRB5      30.00F
PONCA CITY     SUNNY     88  46  23 NW8G17    30.00F
BARTLESVILLE   MOSUNNY   89  55  31 SW9       30.00F
MUSKOGEE       MOSUNNY   86  59  39 SW7       30.02F
$$

OKZ032-040>043-046>053-073>077-292200-
SOUTH CENTRAL/SOUTHEAST OKLAHOMA

CITY           SKY/WX    TMP DP  RH WIND       PRES   REMARKS
ARDMORE/DWNTWN SUNNY     86  43  22 S6        30.03F
MCALESTER      SUNNY     87  53  31 W5        30.04F
$$




USA.gov is the U.S. government's official web portal to all federal, state and local government web resources and services.